Погода в Костроме

Россия / Костромская область     57˚46′04″N   40˚55′36″E
темп.,
°C
ветер,
м/с
пор.,
м/с
влажн.,
%
обл.,
%
осадки,
мм/ч
давл.,
гПа
погр.,
м
5 декабря, сб
сб500:00−8˚ю498484 0.0 1038301
03:00−7˚ю498492 0.0 1039337
06:00−8˚ююв488688 0.0 1038220
09:00−6˚ю588593 0.0 1039315
12:00−7˚ю498678 0.0 1039277
15:00−7˚ююв478639 0.0 1039140
18:00−9˚ю49840 0.0 1039167
21:00−9˚ю47830 0.0 1040125
6 декабря, вс
вс600:00−10˚ю47820 0.0 1040112
03:00−10˚ю47820 0.0 1041103
06:00−10˚ю47810 0.0 1040116
09:00−10˚ююз34800 0.0 104180
12:00−7˚ююз37820 0.0 1041179
15:00−8˚ююз34800 0.0 104171
18:00−9˚юз34780 0.0 104240
21:00−9˚юз34760 0.0 104262
7 декабря, пн
пн700:00−9˚юз33783 0.0 104330
03:00−9˚юз33792 0.0 104327
06:00−9˚зюз23790 0.0 104222
09:00−9˚зюз23780 0.0 104321
12:00−6˚зюз23810 0.0 104350
15:00−7˚юз23790 0.0 104322
18:00−8˚юз22770 0.0 104321
21:00−9˚юз22770 0.0 104321
8 декабря, вт
вт800:00−9˚юз22760 0.0 104321
03:00−9˚юз22751 0.0 104321
06:00−9˚ююз237521 0.0 104321
09:00−9˚ююз227418 0.0 104321
12:00−6˚ююз227742 0.0 104331
15:00−7˚ююз227443 0.0 104321
18:00−8˚ю22737 0.0 104321
21:00−9˚ю227231 0.0 104321
9 декабря, ср
ср900:00−9˚ю237330 0.0 104221
03:00−9˚ююв237415 0.0 104221
06:00−9˚ююв23760 0.0 104221
09:00−9˚ююв33770 0.0 104222
12:00−7˚ююв35820 0.0 1042114
15:00−8˚ююв34830 0.0 104166
18:00−10˚ююв34920 0.0 104177
21:00−6˚юв389632 0.0 1040319